owner,sensor,date,latitude,longitude,vertical_datum,wind_speed,wind_to_direction,wind_speed_of_gust,qcFlag 
NOS,ioos:station:wmo:bzst2:1,2018-03-01T00:00:00Z,26.0670,-97.1550,15.0,4.3,167.0,6.0,'11111222,11111222,11111222' 
NOS,ioos:station:wmo:bzst2:1,2018-03-01T00:06:00Z,26.0670,-97.1550,15.0,5.4,165.0,6.3,'11111222,11111222,11111222' 
NOS,ioos:station:wmo:bzst2:1,2018-03-01T00:12:00Z,26.0670,-97.1550,15.0,6.0,165.0,6.8,'11111222,11111222,11111222' 
NOS,ioos:station:wmo:bzst2:1,2018-03-01T00:18:00Z,26.0670,-97.1550,15.0,5.4,166.0,6.8,'11111222,11111222,11111222' 
NOS,ioos:station:wmo:bzst2:1,2018-03-01T00:24:00Z,26.0670,-97.1550,15.0,5.4,166.0,6.4,'11111222,11111222,11111222' 
NOS,ioos:station:wmo:bzst2:1,2018-03-01T00:30:00Z,26.0670,-97.1550,15.0,5.6,165.0,6.8,'11111222,11111222,11111222' 
NOS,ioos:station:wmo:bzst2:1,2018-03-01T00:36:00Z,26.0670,-97.1550,15.0,5.6,165.0,6.7,'11111222,11111222,11111222' 
NOS,ioos:station:wmo:bzst2:1,2018-03-01T00:42:00Z,26.0670,-97.1550,15.0,5.1,163.0,6.3,'11111222,11111222,11111222' 
NOS,ioos:station:wmo:bzst2:1,2018-03-01T00:48:00Z,26.0670,-97.1550,15.0,5.5,164.0,6.6,'11111222,11111222,11111222' 
NOS,ioos:station:wmo:bzst2:1,2018-03-01T00:54:00Z,26.0670,-97.1550,15.0,5.5,164.0,6.7,'11111222,11111222,11111222' 
NOS,ioos:station:wmo:bzst2:1,2018-03-01T01:00:00Z,26.0670,-97.1550,15.0,5.7,165.0,6.6,'11111222,11111222,11111222' 
NOS,ioos:station:wmo:bzst2:1,2018-03-01T01:06:00Z,26.0670,-97.1550,15.0,6.3,165.0,7.2,'11111222,11111222,11111222' 
NOS,ioos:station:wmo:bzst2:1,2018-03-01T01:12:00Z,26.0670,-97.1550,15.0,6.2,165.0,7.5,'11111222,11111222,11111222' 
NOS,ioos:station:wmo:bzst2:1,2018-03-01T01:18:00Z,26.0670,-97.1550,15.0,6.7,164.0,7.7,'11111222,11111222,11111222' 
NOS,ioos:station:wmo:bzst2:1,2018-03-01T01:24:00Z,26.0670,-97.1550,15.0,6.6,164.0,7.8,'11111222,11111222,11111222' 
NOS,ioos:station:wmo:bzst2:1,2018-03-01T01:30:00Z,26.0670,-97.1550,15.0,6.3,164.0,7.3,'11111222,11111222,11111222' 
NOS,ioos:station:wmo:bzst2:1,2018-03-01T01:36:00Z,26.0670,-97.1550,15.0,6.4,165.0,7.4,'11111222,11111222,11111222' 
NOS,ioos:station:wmo:bzst2:1,2018-03-01T01:42:00Z,26.0670,-97.1550,15.0,5.6,163.0,7.0,'11111222,11111222,11111222' 
NOS,ioos:station:wmo:bzst2:1,2018-03-01T01:48:00Z,26.0670,-97.1550,15.0,6.1,164.0,7.0,'11111222,11111222,11111222' 
NOS,ioos:station:wmo:bzst2:1,2018-03-01T01:54:00Z,26.0670,-97.1550,15.0,6.3,166.0,7.3,'11111222,11111222,11111222' 
NOS,ioos:station:wmo:bzst2:1,2018-03-01T02:00:00Z,26.0670,-97.1550,15.0,6.3,166.0,7.6,'11111222,11111222,11111222' 
NOS,ioos:station:wmo:bzst2:1,2018-03-01T02:06:00Z,26.0670,-97.1550,15.0,6.2,164.0,7.4,'11111222,11111222,11111222' 
NOS,ioos:station:wmo:bzst2:1,2018-03-01T02:12:00Z,26.0670,-97.1550,15.0,6.0,164.0,7.1,'11111222,11111222,11111222' 
NOS,ioos:station:wmo:bzst2:1,2018-03-01T02:18:00Z,26.0670,-97.1550,15.0,6.1,165.0,7.2,'11111222,11111222,11111222' 
NOS,ioos:station:wmo:bzst2:1,2018-03-01T02:24:00Z,26.0670,-97.1550,15.0,6.6,163.0,7.9,'11111222,11111222,11111222' 
NOS,ioos:station:wmo:bzst2:1,2018-03-01T02:30:00Z,26.0670,-97.1550,15.0,6.6,161.0,8.1,'11111222,11111222,11111222' 
NOS,ioos:station:wmo:bzst2:1,2018-03-01T02:36:00Z,26.0670,-97.1550,15.0,6.6,163.0,7.4,'11111222,11111222,11111222' 
NOS,ioos:station:wmo:bzst2:1,2018-03-01T02:42:00Z,26.0670,-97.1550,15.0,7.1,165.0,8.2,'11111222,11111222,11111222' 
NOS,ioos:station:wmo:bzst2:1,2018-03-01T02:48:00Z,26.0670,-97.1550,15.0,6.9,163.0,8.2,'11111222,11111222,11111222' 
NOS,ioos:station:wmo:bzst2:1,2018-03-01T02:54:00Z,26.0670,-97.1550,15.0,7.0,165.0,8.4,'11111222,11111222,11111222' 
NOS,ioos:station:wmo:bzst2:1,2018-03-01T03:00:00Z,26.0670,-97.1550,15.0,6.6,164.0,7.8,'11111222,11111222,11111222' 
NOS,ioos:station:wmo:bzst2:1,2018-03-01T03:06:00Z,26.0670,-97.1550,15.0,6.4,163.0,7.6,'11111222,11111222,11111222' 
NOS,ioos:station:wmo:bzst2:1,2018-03-01T03:12:00Z,26.0670,-97.1550,15.0,6.6,163.0,7.7,'11111222,11111222,11111222' 
NOS,ioos:station:wmo:bzst2:1,2018-03-01T03:18:00Z,26.0670,-97.1550,15.0,6.8,163.0,8.0,'11111222,11111222,11111222' 
NOS,ioos:station:wmo:bzst2:1,2018-03-01T03:24:00Z,26.0670,-97.1550,15.0,7.0,163.0,8.2,'11111222,11111222,11111222' 
NOS,ioos:station:wmo:bzst2:1,2018-03-01T03:30:00Z,26.0670,-97.1550,15.0,6.3,163.0,7.8,'11111222,11111222,11111222' 
NOS,ioos:station:wmo:bzst2:1,2018-03-01T03:36:00Z,26.0670,-97.1550,15.0,6.0,167.0,7.1,'11111222,11111222,11111222' 
NOS,ioos:station:wmo:bzst2:1,2018-03-01T03:42:00Z,26.0670,-97.1550,15.0,5.8,168.0,6.8,'11111222,11111222,11111222' 
NOS,ioos:station:wmo:bzst2:1,2018-03-01T03:48:00Z,26.0670,-97.1550,15.0,6.5,171.0,7.8,'11111222,11111222,11111222' 
NOS,ioos:station:wmo:bzst2:1,2018-03-01T03:54:00Z,26.0670,-97.1550,15.0,6.9,172.0,8.3,'11111222,11111222,11111222' 
NOS,ioos:station:wmo:bzst2:1,2018-03-01T04:00:00Z,26.0670,-97.1550,15.0,7.1,176.0,8.2,'11111222,11111222,11111222' 
NOS,ioos:station:wmo:bzst2:1,2018-03-01T04:06:00Z,26.0670,-97.1550,15.0,7.2,172.0,8.7,'11111222,11111222,11111222' 
NOS,ioos:station:wmo:bzst2:1,2018-03-01T04:12:00Z,26.0670,-97.1550,15.0,7.1,172.0,8.6,'11111222,11111222,11111222' 
NOS,ioos:station:wmo:bzst2:1,2018-03-01T04:18:00Z,26.0670,-97.1550,15.0,6.9,171.0,8.4,'11111222,11111222,11111222' 
NOS,ioos:station:wmo:bzst2:1,2018-03-01T04:24:00Z,26.0670,-97.1550,15.0,7.2,168.0,8.2,'11111222,11111222,11111222' 
NOS,ioos:station:wmo:bzst2:1,2018-03-01T04:30:00Z,26.0670,-97.1550,15.0,6.9,169.0,8.2,'11111222,11111222,11111222' 
NOS,ioos:station:wmo:bzst2:1,2018-03-01T04:36:00Z,26.0670,-97.1550,15.0,6.8,168.0,8.1,'11111222,11111222,11111222' 
NOS,ioos:station:wmo:bzst2:1,2018-03-01T04:42:00Z,26.0670,-97.1550,15.0,5.8,167.0,7.6,'11111222,11111222,11111222' 
NOS,ioos:station:wmo:bzst2:1,2018-03-01T04:48:00Z,26.0670,-97.1550,15.0,6.3,165.0,7.5,'11111222,11111222,11111222' 
NOS,ioos:station:wmo:bzst2:1,2018-03-01T04:54:00Z,26.0670,-97.1550,15.0,5.4,169.0,7.4,'11111222,11111222,11111222' 
NOS,ioos:station:wmo:bzst2:1,2018-03-01T05:00:00Z,26.0670,-97.1550,15.0,4.6,170.0,6.4,'11111222,11111222,11111222' 
NOS,ioos:station:wmo:bzst2:1,2018-03-01T05:06:00Z,26.0670,-97.1550,15.0,4.4,170.0,5.1,'11111222,11111222,11111222' 
NOS,ioos:station:wmo:bzst2:1,2018-03-01T05:12:00Z,26.0670,-97.1550,15.0,4.8,167.0,5.9,'11111222,11111222,11111222' 
NOS,ioos:station:wmo:bzst2:1,2018-03-01T05:18:00Z,26.0670,-97.1550,15.0,4.8,168.0,5.7,'11111222,11111222,11111222' 
NOS,ioos:station:wmo:bzst2:1,2018-03-01T05:24:00Z,26.0670,-97.1550,15.0,4.6,162.0,5.6,'11111222,11111222,11111222' 
NOS,ioos:station:wmo:bzst2:1,2018-03-01T05:30:00Z,26.0670,-97.1550,15.0,4.7,157.0,5.5,'11111222,11111222,11111222' 
NOS,ioos:station:wmo:bzst2:1,2018-03-01T05:36:00Z,26.0670,-97.1550,15.0,3.3,157.0,5.2,'11111222,11111222,11111222' 
NOS,ioos:station:wmo:bzst2:1,2018-03-01T05:42:00Z,26.0670,-97.1550,15.0,2.8,159.0,4.1,'11111222,11111222,11111222' 
NOS,ioos:station:wmo:bzst2:1,2018-03-01T05:48:00Z,26.0670,-97.1550,15.0,4.0,167.0,4.7,'11111222,11111222,11111222' 
NOS,ioos:station:wmo:bzst2:1,2018-03-01T05:54:00Z,26.0670,-97.1550,15.0,4.6,168.0,5.2,'11111222,11111222,11111222' 
NOS,ioos:station:wmo:bzst2:1,2018-03-01T06:00:00Z,26.0670,-97.1550,15.0,4.0,170.0,5.1,'11111222,11111222,11111222' 
NOS,ioos:station:wmo:bzst2:1,2018-03-01T06:06:00Z,26.0670,-97.1550,15.0,3.8,168.0,4.6,'11111222,11111222,11111222' 
NOS,ioos:station:wmo:bzst2:1,2018-03-01T06:12:00Z,26.0670,-97.1550,15.0,3.9,169.0,4.8,'11111222,11111222,11111222' 
NOS,ioos:station:wmo:bzst2:1,2018-03-01T06:18:00Z,26.0670,-97.1550,15.0,4.2,170.0,4.9,'11111222,11111222,11111222' 
NOS,ioos:station:wmo:bzst2:1,2018-03-01T06:24:00Z,26.0670,-97.1550,15.0,4.6,170.0,5.4,'11111222,11111222,11111222' 
NOS,ioos:station:wmo:bzst2:1,2018-03-01T06:30:00Z,26.0670,-97.1550,15.0,3.1,172.0,4.9,'11111222,11111222,11111222' 
NOS,ioos:station:wmo:bzst2:1,2018-03-01T06:36:00Z,26.0670,-97.1550,15.0,2.4,176.0,3.5,'11111222,11111222,11111222' 
NOS,ioos:station:wmo:bzst2:1,2018-03-01T06:42:00Z,26.0670,-97.1550,15.0,2.0,178.0,2.9,'11111222,11111222,11111222' 
NOS,ioos:station:wmo:bzst2:1,2018-03-01T06:48:00Z,26.0670,-97.1550,15.0,2.5,167.0,3.4,'11111222,11111222,11111222' 
NOS,ioos:station:wmo:bzst2:1,2018-03-01T06:54:00Z,26.0670,-97.1550,15.0,2.6,166.0,3.0,'11111222,11111222,11111222' 
NOS,ioos:station:wmo:bzst2:1,2018-03-01T07:00:00Z,26.0670,-97.1550,15.0,2.7,167.0,3.3,'11111222,11111222,11111222' 
NOS,ioos:station:wmo:bzst2:1,2018-03-01T07:06:00Z,26.0670,-97.1550,15.0,2.9,168.0,3.5,'11111222,11111222,11111222' 
NOS,ioos:station:wmo:bzst2:1,2018-03-01T07:12:00Z,26.0670,-97.1550,15.0,2.4,186.0,3.3,'11111222,11111222,11111222' 
NOS,ioos:station:wmo:bzst2:1,2018-03-01T07:18:00Z,26.0670,-97.1550,15.0,2.3,191.0,2.7,'11111222,11111222,11111222' 
NOS,ioos:station:wmo:bzst2:1,2018-03-01T07:24:00Z,26.0670,-97.1550,15.0,2.4,200.0,2.9,'11111222,11111222,11111222' 
NOS,ioos:station:wmo:bzst2:1,2018-03-01T07:30:00Z,26.0670,-97.1550,15.0,2.9,186.0,3.4,'11111222,11111222,11111222' 
NOS,ioos:station:wmo:bzst2:1,2018-03-01T07:36:00Z,26.0670,-97.1550,15.0,3.8,175.0,4.6,'11111222,11111222,11111222' 
NOS,ioos:station:wmo:bzst2:1,2018-03-01T07:42:00Z,26.0670,-97.1550,15.0,3.5,178.0,5.0,'11111222,11111222,11111222' 
NOS,ioos:station:wmo:bzst2:1,2018-03-01T07:48:00Z,26.0670,-97.1550,15.0,2.2,175.0,3.6,'11111222,11111222,11111222' 
NOS,ioos:station:wmo:bzst2:1,2018-03-01T07:54:00Z,26.0670,-97.1550,15.0,1.5,180.0,2.5,'11111222,11111222,11111222' 
NOS,ioos:station:wmo:bzst2:1,2018-03-01T08:00:00Z,26.0670,-97.1550,15.0,1.2,190.0,1.8,'11111222,11111222,11111222' 
NOS,ioos:station:wmo:bzst2:1,2018-03-01T08:06:00Z,26.0670,-97.1550,15.0,0.0,183.0,0.8,'11111222,11111222,11111222' 
NOS,ioos:station:wmo:bzst2:1,2018-03-01T08:12:00Z,26.0670,-97.1550,15.0,0.1,284.0,0.9,'11111222,11111222,11111222' 
NOS,ioos:station:wmo:bzst2:1,2018-03-01T08:18:00Z,26.0670,-97.1550,15.0,0.9,156.0,1.2,'11111222,11111222,11111222' 
NOS,ioos:station:wmo:bzst2:1,2018-03-01T08:24:00Z,26.0670,-97.1550,15.0,1.8,152.0,2.0,'11111222,11111222,11111222' 
NOS,ioos:station:wmo:bzst2:1,2018-03-01T08:30:00Z,26.0670,-97.1550,15.0,1.3,148.0,2.3,'11111222,11111222,11111222' 
NOS,ioos:station:wmo:bzst2:1,2018-03-01T08:36:00Z,26.0670,-97.1550,15.0,1.9,136.0,2.1,'11111222,11111222,11111222' 
NOS,ioos:station:wmo:bzst2:1,2018-03-01T08:42:00Z,26.0670,-97.1550,15.0,2.0,148.0,2.9,'11111222,11111222,11111222' 
NOS,ioos:station:wmo:bzst2:1,2018-03-01T08:48:00Z,26.0670,-97.1550,15.0,2.4,151.0,3.0,'11111222,11111222,11111222' 
NOS,ioos:station:wmo:bzst2:1,2018-03-01T08:54:00Z,26.0670,-97.1550,15.0,3.1,165.0,3.7,'11111222,11111222,11111222' 
NOS,ioos:station:wmo:bzst2:1,2018-03-01T09:00:00Z,26.0670,-97.1550,15.0,3.1,171.0,4.1,'11111222,11111222,11111222' 
NOS,ioos:station:wmo:bzst2:1,2018-03-01T09:06:00Z,26.0670,-97.1550,15.0,2.8,184.0,3.6,'11111222,11111222,11111222' 
NOS,ioos:station:wmo:bzst2:1,2018-03-01T09:12:00Z,26.0670,-97.1550,15.0,2.5,182.0,3.5,'11111222,11111222,11111222' 
NOS,ioos:station:wmo:bzst2:1,2018-03-01T09:18:00Z,26.0670,-97.1550,15.0,2.6,199.0,3.6,'11111222,11111222,11111222' 
NOS,ioos:station:wmo:bzst2:1,2018-03-01T09:24:00Z,26.0670,-97.1550,15.0,2.5,176.0,2.9,'11111222,11111222,11111222' 
NOS,ioos:station:wmo:bzst2:1,2018-03-01T09:30:00Z,26.0670,-97.1550,15.0,3.1,171.0,3.6,'11111222,11111222,11111222' 
NOS,ioos:station:wmo:bzst2:1,2018-03-01T09:36:00Z,26.0670,-97.1550,15.0,3.1,176.0,3.6,'11111222,11111222,11111222' 
NOS,ioos:station:wmo:bzst2:1,2018-03-01T09:42:00Z,26.0670,-97.1550,15.0,3.7,177.0,4.1,'11111222,11111222,11111222' 
NOS,ioos:station:wmo:bzst2:1,2018-03-01T09:48:00Z,26.0670,-97.1550,15.0,4.4,168.0,5.0,'11111222,11111222,11111222' 
NOS,ioos:station:wmo:bzst2:1,2018-03-01T09:54:00Z,26.0670,-97.1550,15.0,6.5,150.0,7.0,'11111222,11111222,11111222' 
NOS,ioos:station:wmo:bzst2:1,2018-03-01T10:00:00Z,26.0670,-97.1550,15.0,5.2,158.0,7.1,'11111222,11111222,11111222' 
NOS,ioos:station:wmo:bzst2:1,2018-03-01T10:06:00Z,26.0670,-97.1550,15.0,5.0,156.0,6.1,'11111222,11111222,11111222' 
NOS,ioos:station:wmo:bzst2:1,2018-03-01T10:12:00Z,26.0670,-97.1550,15.0,6.1,149.0,6.7,'11111222,11111222,11111222' 
NOS,ioos:station:wmo:bzst2:1,2018-03-01T10:18:00Z,26.0670,-97.1550,15.0,5.6,156.0,6.6,'11111222,11111222,11111222' 
NOS,ioos:station:wmo:bzst2:1,2018-03-01T10:24:00Z,26.0670,-97.1550,15.0,6.8,152.0,7.7,'11111222,11111222,11111222' 
NOS,ioos:station:wmo:bzst2:1,2018-03-01T10:30:00Z,26.0670,-97.1550,15.0,7.5,150.0,8.4,'11111222,11111222,11111222' 
NOS,ioos:station:wmo:bzst2:1,2018-03-01T10:36:00Z,26.0670,-97.1550,15.0,5.5,157.0,7.6,'11111222,11111222,11111222' 
NOS,ioos:station:wmo:bzst2:1,2018-03-01T10:42:00Z,26.0670,-97.1550,15.0,4.8,157.0,5.8,'11111222,11111222,11111222' 
NOS,ioos:station:wmo:bzst2:1,2018-03-01T10:48:00Z,26.0670,-97.1550,15.0,4.0,157.0,5.2,'11111222,11111222,11111222' 
NOS,ioos:station:wmo:bzst2:1,2018-03-01T10:54:00Z,26.0670,-97.1550,15.0,2.6,159.0,3.8,'11111222,11111222,11111222' 
NOS,ioos:station:wmo:bzst2:1,2018-03-01T11:00:00Z,26.0670,-97.1550,15.0,1.1,189.0,3.1,'11111222,11111222,11111222' 
NOS,ioos:station:wmo:bzst2:1,2018-03-01T11:06:00Z,26.0670,-97.1550,15.0,1.0,259.0,1.3,'11111222,11111222,11111222' 
NOS,ioos:station:wmo:bzst2:1,2018-03-01T11:12:00Z,26.0670,-97.1550,15.0,2.0,292.0,2.4,'11111222,11111222,11111222' 
NOS,ioos:station:wmo:bzst2:1,2018-03-01T11:18:00Z,26.0670,-97.1550,15.0,2.3,294.0,2.8,'11111222,11111222,11111222' 
NOS,ioos:station:wmo:bzst2:1,2018-03-01T11:24:00Z,26.0670,-97.1550,15.0,1.2,265.0,2.5,'11111222,11111222,11111222' 
NOS,ioos:station:wmo:bzst2:1,2018-03-01T11:30:00Z,26.0670,-97.1550,15.0,1.3,278.0,1.5,'11111222,11111222,11111222' 
NOS,ioos:station:wmo:bzst2:1,2018-03-01T11:36:00Z,26.0670,-97.1550,15.0,1.2,274.0,1.9,'11111222,11111222,11111222' 
NOS,ioos:station:wmo:bzst2:1,2018-03-01T11:42:00Z,26.0670,-97.1550,15.0,0.8,236.0,1.6,'11111222,11111222,11111222' 
NOS,ioos:station:wmo:bzst2:1,2018-03-01T11:48:00Z,26.0670,-97.1550,15.0,0.1,235.0,0.8,'11111222,11111222,11111222' 
NOS,ioos:station:wmo:bzst2:1,2018-03-01T11:54:00Z,26.0670,-97.1550,15.0,1.0,144.0,1.4,'11111222,11111222,11111222' 
NOS,ioos:station:wmo:bzst2:1,2018-03-01T12:00:00Z,26.0670,-97.1550,15.0,1.8,138.0,2.3,'11111222,11111222,11111222' 
NOS,ioos:station:wmo:bzst2:1,2018-03-01T12:06:00Z,26.0670,-97.1550,15.0,1.9,134.0,2.2,'11111222,11111222,11111222' 
NOS,ioos:station:wmo:bzst2:1,2018-03-01T12:12:00Z,26.0670,-97.1550,15.0,1.7,137.0,2.3,'11111222,11111222,11111222' 
NOS,ioos:station:wmo:bzst2:1,2018-03-01T12:18:00Z,26.0670,-97.1550,15.0,2.5,151.0,2.7,'11111222,11111222,11111222' 
NOS,ioos:station:wmo:bzst2:1,2018-03-01T12:24:00Z,26.0670,-97.1550,15.0,2.0,165.0,2.7,'11111222,11111222,11111222' 
NOS,ioos:station:wmo:bzst2:1,2018-03-01T12:30:00Z,26.0670,-97.1550,15.0,0.4,140.0,1.7,'11111222,11111222,11111222' 
NOS,ioos:station:wmo:bzst2:1,2018-03-01T12:36:00Z,26.0670,-97.1550,15.0,0.0,354.0,0.7,'11111222,11111222,11111222' 
NOS,ioos:station:wmo:bzst2:1,2018-03-01T12:42:00Z,26.0670,-97.1550,15.0,0.8,208.0,1.0,'11111222,11111222,11111222' 
NOS,ioos:station:wmo:bzst2:1,2018-03-01T12:48:00Z,26.0670,-97.1550,15.0,0.5,229.0,0.8,'11111222,11111222,11111222' 
NOS,ioos:station:wmo:bzst2:1,2018-03-01T12:54:00Z,26.0670,-97.1550,15.0,0.5,139.0,0.7,'11111222,11111222,11111222' 
NOS,ioos:station:wmo:bzst2:1,2018-03-01T13:00:00Z,26.0670,-97.1550,15.0,1.1,121.0,1.4,'11111222,11111222,11111222' 
NOS,ioos:station:wmo:bzst2:1,2018-03-01T13:06:00Z,26.0670,-97.1550,15.0,1.7,3.0,1.9,'11111222,11111222,11111222' 
NOS,ioos:station:wmo:bzst2:1,2018-03-01T13:12:00Z,26.0670,-97.1550,15.0,2.0,14.0,2.4,'11111222,11111222,11111222' 
NOS,ioos:station:wmo:bzst2:1,2018-03-01T13:18:00Z,26.0670,-97.1550,15.0,1.1,355.0,1.9,'11111222,11111222,11111222' 
NOS,ioos:station:wmo:bzst2:1,2018-03-01T13:24:00Z,26.0670,-97.1550,15.0,1.9,358.0,2.1,'11111222,11111222,11111222' 
NOS,ioos:station:wmo:bzst2:1,2018-03-01T13:30:00Z,26.0670,-97.1550,15.0,1.6,338.0,2.3,'11111222,11111222,11111222' 
NOS,ioos:station:wmo:bzst2:1,2018-03-01T13:36:00Z,26.0670,-97.1550,15.0,1.0,60.0,1.2,'11111222,11111222,11111222' 
NOS,ioos:station:wmo:bzst2:1,2018-03-01T13:42:00Z,26.0670,-97.1550,15.0,1.1,29.0,1.2,'11111222,11111222,11111222' 
NOS,ioos:station:wmo:bzst2:1,2018-03-01T13:48:00Z,26.0670,-97.1550,15.0,1.5,20.0,1.9,'11111222,11111222,11111222' 
NOS,ioos:station:wmo:bzst2:1,2018-03-01T13:54:00Z,26.0670,-97.1550,15.0,2.9,8.0,3.1,'11111222,11111222,11111222' 
NOS,ioos:station:wmo:bzst2:1,2018-03-01T14:00:00Z,26.0670,-97.1550,15.0,3.6,13.0,3.9,'11111222,11111222,11111222' 
NOS,ioos:station:wmo:bzst2:1,2018-03-01T14:06:00Z,26.0670,-97.1550,15.0,3.8,8.0,4.0,'11111222,11111222,11111222' 
NOS,ioos:station:wmo:bzst2:1,2018-03-01T14:12:00Z,26.0670,-97.1550,15.0,3.1,16.0,3.7,'11111222,11111222,11111222' 
NOS,ioos:station:wmo:bzst2:1,2018-03-01T14:18:00Z,26.0670,-97.1550,15.0,2.7,29.0,3.1,'11111222,11111222,11111222' 
NOS,ioos:station:wmo:bzst2:1,2018-03-01T14:24:00Z,26.0670,-97.1550,15.0,3.7,18.0,4.0,'11111222,11111222,11111222' 
NOS,ioos:station:wmo:bzst2:1,2018-03-01T14:30:00Z,26.0670,-97.1550,15.0,3.0,24.0,3.9,'11111222,11111222,11111222' 
NOS,ioos:station:wmo:bzst2:1,2018-03-01T14:36:00Z,26.0670,-97.1550,15.0,3.2,26.0,3.4,'11111222,11111222,11111222' 
NOS,ioos:station:wmo:bzst2:1,2018-03-01T14:42:00Z,26.0670,-97.1550,15.0,3.5,38.0,3.7,'11111222,11111222,11111222' 
NOS,ioos:station:wmo:bzst2:1,2018-03-01T14:48:00Z,26.0670,-97.1550,15.0,2.3,48.0,3.4,'11111222,11111222,11111222' 
NOS,ioos:station:wmo:bzst2:1,2018-03-01T14:54:00Z,26.0670,-97.1550,15.0,2.8,27.0,3.0,'11111222,11111222,11111222' 
NOS,ioos:station:wmo:bzst2:1,2018-03-01T15:00:00Z,26.0670,-97.1550,15.0,2.2,26.0,2.8,'11111222,11111222,11111222' 
NOS,ioos:station:wmo:bzst2:1,2018-03-01T15:06:00Z,26.0670,-97.1550,15.0,2.4,21.0,2.6,'11111222,11111222,11111222' 
NOS,ioos:station:wmo:bzst2:1,2018-03-01T15:12:00Z,26.0670,-97.1550,15.0,2.3,31.0,2.6,'11111222,11111222,11111222' 
NOS,ioos:station:wmo:bzst2:1,2018-03-01T15:18:00Z,26.0670,-97.1550,15.0,2.6,23.0,2.7,'11111222,11111222,11111222' 
NOS,ioos:station:wmo:bzst2:1,2018-03-01T15:24:00Z,26.0670,-97.1550,15.0,2.8,17.0,3.1,'11111222,11111222,11111222' 
NOS,ioos:station:wmo:bzst2:1,2018-03-01T15:30:00Z,26.0670,-97.1550,15.0,3.4,9.0,3.6,'11111222,11111222,11111222' 
NOS,ioos:station:wmo:bzst2:1,2018-03-01T15:36:00Z,26.0670,-97.1550,15.0,3.4,21.0,3.7,'11111222,11111222,11111222' 
NOS,ioos:station:wmo:bzst2:1,2018-03-01T15:42:00Z,26.0670,-97.1550,15.0,3.4,6.0,3.8,'11111222,11111222,11111222' 
NOS,ioos:station:wmo:bzst2:1,2018-03-01T15:48:00Z,26.0670,-97.1550,15.0,2.6,353.0,3.2,'11111222,11111222,11111222' 
NOS,ioos:station:wmo:bzst2:1,2018-03-01T15:54:00Z,26.0670,-97.1550,15.0,3.0,5.0,3.4,'11111222,11111222,11111222' 
NOS,ioos:station:wmo:bzst2:1,2018-03-01T16:00:00Z,26.0670,-97.1550,15.0,3.5,4.0,4.0,'11111222,11111222,11111222' 
NOS,ioos:station:wmo:bzst2:1,2018-03-01T16:06:00Z,26.0670,-97.1550,15.0,3.7,5.0,4.1,'11111222,11111222,11111222' 
NOS,ioos:station:wmo:bzst2:1,2018-03-01T16:12:00Z,26.0670,-97.1550,15.0,4.0,3.0,4.6,'11111222,11111222,11111222' 
NOS,ioos:station:wmo:bzst2:1,2018-03-01T16:18:00Z,26.0670,-97.1550,15.0,3.6,3.0,4.2,'11111222,11111222,11111222' 
NOS,ioos:station:wmo:bzst2:1,2018-03-01T16:24:00Z,26.0670,-97.1550,15.0,3.3,3.0,3.9,'11111222,11111222,11111222' 
NOS,ioos:station:wmo:bzst2:1,2018-03-01T16:30:00Z,26.0670,-97.1550,15.0,3.5,4.0,4.1,'11111222,11111222,11111222' 
NOS,ioos:station:wmo:bzst2:1,2018-03-01T16:36:00Z,26.0670,-97.1550,15.0,3.8,4.0,4.2,'11111222,11111222,11111222' 
NOS,ioos:station:wmo:bzst2:1,2018-03-01T16:42:00Z,26.0670,-97.1550,15.0,4.3,3.0,4.6,'11111222,11111222,11111222' 
NOS,ioos:station:wmo:bzst2:1,2018-03-01T16:48:00Z,26.0670,-97.1550,15.0,5.3,6.0,6.2,'11111222,11111222,11111222' 
NOS,ioos:station:wmo:bzst2:1,2018-03-01T16:54:00Z,26.0670,-97.1550,15.0,12.9,5.0,14.8,'11111222,11111222,11111222' 
NOS,ioos:station:wmo:bzst2:1,2018-03-01T17:00:00Z,26.0670,-97.1550,15.0,10.9,7.0,13.2,'11111222,11111222,11111222' 
NOS,ioos:station:wmo:bzst2:1,2018-03-01T17:06:00Z,26.0670,-97.1550,15.0,10.5,8.0,11.7,'11111222,11111222,11111222' 
NOS,ioos:station:wmo:bzst2:1,2018-03-01T17:12:00Z,26.0670,-97.1550,15.0,9.9,7.0,11.3,'11111222,11111222,11111222' 
NOS,ioos:station:wmo:bzst2:1,2018-03-01T17:18:00Z,26.0670,-97.1550,15.0,9.5,9.0,10.9,'11111222,11111222,11111222' 
NOS,ioos:station:wmo:bzst2:1,2018-03-01T17:24:00Z,26.0670,-97.1550,15.0,9.3,6.0,11.2,'11111222,11111222,11111222' 
NOS,ioos:station:wmo:bzst2:1,2018-03-01T17:30:00Z,26.0670,-97.1550,15.0,9.0,4.0,10.4,'11111222,11111222,11111222' 
NOS,ioos:station:wmo:bzst2:1,2018-03-01T17:36:00Z,26.0670,-97.1550,15.0,9.9,6.0,11.3,'11111222,11111222,11111222' 
NOS,ioos:station:wmo:bzst2:1,2018-03-01T17:42:00Z,26.0670,-97.1550,15.0,10.8,6.0,12.7,'11111222,11111222,11111222' 
NOS,ioos:station:wmo:bzst2:1,2018-03-01T17:48:00Z,26.0670,-97.1550,15.0,11.2,6.0,13.7,'11111222,11111222,11111222' 
NOS,ioos:station:wmo:bzst2:1,2018-03-01T17:54:00Z,26.0670,-97.1550,15.0,12.3,7.0,13.8,'11111222,11111222,11111222' 
NOS,ioos:station:wmo:bzst2:1,2018-03-01T18:00:00Z,26.0670,-97.1550,15.0,11.4,7.0,13.8,'11111222,11111222,11111222' 
NOS,ioos:station:wmo:bzst2:1,2018-03-01T18:06:00Z,26.0670,-97.1550,15.0,12.4,6.0,14.0,'11111222,11111222,11111222' 
NOS,ioos:station:wmo:bzst2:1,2018-03-01T18:12:00Z,26.0670,-97.1550,15.0,12.3,6.0,14.3,'11111222,11111222,11111222' 
NOS,ioos:station:wmo:bzst2:1,2018-03-01T18:18:00Z,26.0670,-97.1550,15.0,12.0,5.0,14.2,'11111222,11111222,11111222' 
NOS,ioos:station:wmo:bzst2:1,2018-03-01T18:24:00Z,26.0670,-97.1550,15.0,12.7,4.0,14.3,'11111222,11111222,11111222' 
NOS,ioos:station:wmo:bzst2:1,2018-03-01T18:30:00Z,26.0670,-97.1550,15.0,12.8,2.0,15.2,'11111222,11111222,11111222' 
NOS,ioos:station:wmo:bzst2:1,2018-03-01T18:36:00Z,26.0670,-97.1550,15.0,12.4,3.0,14.5,'11111222,11111222,11111222' 
NOS,ioos:station:wmo:bzst2:1,2018-03-01T18:42:00Z,26.0670,-97.1550,15.0,13.4,4.0,15.6,'11111222,11111222,11111222' 
NOS,ioos:station:wmo:bzst2:1,2018-03-01T18:48:00Z,26.0670,-97.1550,15.0,13.9,2.0,16.5,'11111222,11111222,11111222' 
NOS,ioos:station:wmo:bzst2:1,2018-03-01T18:54:00Z,26.0670,-97.1550,15.0,13.7,3.0,15.6,'11111222,11111222,11111222' 
NOS,ioos:station:wmo:bzst2:1,2018-03-01T19:00:00Z,26.0670,-97.1550,15.0,12.6,4.0,14.9,'11111222,11111222,11111222' 
NOS,ioos:station:wmo:bzst2:1,2018-03-01T19:06:00Z,26.0670,-97.1550,15.0,11.9,4.0,14.5,'11111222,11111222,11111222' 
NOS,ioos:station:wmo:bzst2:1,2018-03-01T19:12:00Z,26.0670,-97.1550,15.0,11.1,6.0,13.3,'11111222,11111222,11111222' 
NOS,ioos:station:wmo:bzst2:1,2018-03-01T19:18:00Z,26.0670,-97.1550,15.0,10.6,7.0,12.1,'11111222,11111222,11111222' 
NOS,ioos:station:wmo:bzst2:1,2018-03-01T19:24:00Z,26.0670,-97.1550,15.0,9.9,7.0,12.4,'11111222,11111222,11111222' 
NOS,ioos:station:wmo:bzst2:1,2018-03-01T19:30:00Z,26.0670,-97.1550,15.0,10.7,7.0,12.8,'11111222,11111222,11111222' 
NOS,ioos:station:wmo:bzst2:1,2018-03-01T19:36:00Z,26.0670,-97.1550,15.0,10.3,9.0,12.3,'11111222,11111222,11111222' 
NOS,ioos:station:wmo:bzst2:1,2018-03-01T19:42:00Z,26.0670,-97.1550,15.0,9.8,10.0,11.6,'11111222,11111222,11111222' 
NOS,ioos:station:wmo:bzst2:1,2018-03-01T19:48:00Z,26.0670,-97.1550,15.0,9.6,10.0,10.8,'11111222,11111222,11111222' 
NOS,ioos:station:wmo:bzst2:1,2018-03-01T19:54:00Z,26.0670,-97.1550,15.0,9.2,12.0,10.2,'11111222,11111222,11111222' 
NOS,ioos:station:wmo:bzst2:1,2018-03-01T20:00:00Z,26.0670,-97.1550,15.0,8.8,11.0,10.0,'11111222,11111222,11111222' 
NOS,ioos:station:wmo:bzst2:1,2018-03-01T20:06:00Z,26.0670,-97.1550,15.0,8.4,10.0,9.1,'11111222,11111222,11111222' 
NOS,ioos:station:wmo:bzst2:1,2018-03-01T20:12:00Z,26.0670,-97.1550,15.0,8.1,8.0,9.2,'11111222,11111222,11111222' 
NOS,ioos:station:wmo:bzst2:1,2018-03-01T20:18:00Z,26.0670,-97.1550,15.0,7.6,5.0,9.0,'11111222,11111222,11111222' 
NOS,ioos:station:wmo:bzst2:1,2018-03-01T20:24:00Z,26.0670,-97.1550,15.0,7.6,6.0,8.6,'11111222,11111222,11111222' 
NOS,ioos:station:wmo:bzst2:1,2018-03-01T20:30:00Z,26.0670,-97.1550,15.0,7.6,6.0,8.7,'11111222,11111222,11111222' 